Weather History for CWWE - October, 2012

Change the Weather History Date:

Thursday, October 25, 2012

  Actual Average Record
Temperature  
Mean Temperature 40 °F -  
Max Temperature 51 °F - - ()
Min Temperature 30 °F - - ()
Degree Days  
Heating Degree Days 24    
Moisture  
Dew Point 31 °F    
Average Humidity 69    
Maximum Humidity 88    
Minimum Humidity 43    
Precipitation  
Precipitation 0.00 in - - ()
Sea Level Pressure  
Sea Level Pressure 30.24 in    
Wind  
Wind Speed 6 mph ()    
Max Wind Speed 9 mph    
Max Gust Speed -    
T = Trace of Precipitation, MM = Missing Value Source: Averaged Metar Reports

Daily Weather History Graph

Daily Weather History Graph

Search for Another Location

Airport or City:

Trip Planner

Search our weather history database for the weather conditions in past years. The results will help you decide how hot, cold, wet, or windy it might be!

Date:

Astronomy

Oct. 25, 2012 Rise Set
Actual Time 7:46 AM ADT 6:18 PM ADT
Civil Twilight 7:16 AM ADT 6:47 PM ADT
Nautical Twilight 6:43 AM ADT 7:21 PM ADT
Astronomical Twilight 6:09 AM ADT 7:54 PM ADT
Moon 4:08 PM ADT 3:31 AM ADT
Length of Visible Light 11h 30m
Length of Day
10h 31m
Waxing Gibbous, 84% of the Moon is Illuminated
Oct 25
Waxing Gibbous
Oct 29
Full
Nov 6
Last Quarter
Nov 13
New
Nov 20
First Quarter

Hourly Weather History & Observations

Time (ADT) Temp. Windchill Dew Point Humidity Pressure Visibility Wind Dir Wind Speed Gust Speed Precip Events Conditions
12:00 AM 36 °F - 29 °F 67% 30.18 in - NW 8.1 mph - -  
12:00 AM 35.6 °F 29.2 °F 29.1 °F 77% 30.18 in - NW 8.1 mph - N/A   Unknown
1:00 AM 36.7 °F 29.9 °F 29.3 °F 75% 30.18 in - NNW 9.2 mph - N/A   Unknown
2:00 AM 34.7 °F 28.8 °F 28.8 °F 79% 30.19 in - NNW 6.9 mph - N/A   Unknown
3:00 AM 34 °F - 28 °F 71% 30.22 in - NNW 6.9 mph - -  
3:00 AM 33.8 °F 27.7 °F 28.0 °F 79% 30.22 in - NNW 6.9 mph - N/A   Unknown
4:00 AM 33.3 °F 27.1 °F 28.6 °F 83% 30.22 in - NNW 6.9 mph - N/A   Unknown
5:00 AM 30.9 °F 24.3 °F 27.9 °F 88% 30.22 in - NNW 6.9 mph - N/A   Unknown
6:00 AM 31 °F - 28 °F 83% 30.22 in - NNW 6.9 mph - -  
6:00 AM 30.9 °F 24.3 °F 27.9 °F 88% 30.22 in - NNW 6.9 mph - N/A   Unknown
7:00 AM 30.4 °F 23.6 °F 26.8 °F 86% 30.24 in - NNW 6.9 mph - N/A   Unknown
8:00 AM 30.6 °F 23.1 °F 27.0 °F 86% 30.26 in - NW 8.1 mph - N/A   Unknown
9:00 AM 34 °F - 29 °F 75% 30.28 in - NW 9.2 mph - -  
10:00 AM 40.5 °F 35.8 °F 31.1 °F 69% 30.30 in - NNW 6.9 mph - N/A   Unknown
11:00 AM 44.2 °F 39.7 °F 31.5 °F 61% 30.30 in - North 8.1 mph - N/A   Unknown
12:00 PM 47 °F - 33 °F 45% 30.27 in - North 5.8 mph - -  
12:00 PM 46.8 °F - 31.5 °F 55% 30.27 in - North 5.8 mph - N/A   Unknown
1:00 PM 49.5 °F - 33.4 °F 54% 30.25 in - ENE 3.5 mph - N/A   Unknown
2:00 PM 50.0 °F - 34.3 °F 55% 30.24 in - East 5.8 mph - N/A   Unknown
3:00 PM 50 °F - 35 °F 43% 30.24 in - South 5.8 mph - -  
4:00 PM 49.1 °F - 36.3 °F 61% 30.22 in - South 8.1 mph - N/A   Unknown
6:00 PM 47 °F - 36 °F 54% 30.23 in - SW 2.3 mph - -  
6:00 PM 47.5 °F - 35.6 °F 63% 30.23 in - SW 2.3 mph - N/A   Unknown
7:00 PM 44.1 °F 40.8 °F 34.0 °F 68% 30.25 in - North 5.8 mph - N/A   Unknown
8:00 PM 42.1 °F 37.1 °F 32.9 °F 70% 30.26 in - NNW 8.1 mph - N/A   Unknown
9:00 PM 42 °F - 32 °F 57% 30.28 in - NNW 8.1 mph - -  
9:00 PM 41.5 °F 36.4 °F 31.8 °F 68% 30.28 in - NNW 8.1 mph - N/A   Unknown
10:00 PM 39.9 °F 33.9 °F 30.9 °F 70% 30.28 in - NNW 9.2 mph - N/A   Unknown
11:00 PM 37.8 °F 31.3 °F 31.1 °F 77% 30.26 in - NNW 9.2 mph - N/A   Unknown